Weather in Klerksdorp

South Africa     26°51′50″S   26°39′59″E
temp.,
°C
wind,
m/s
gust,
m/s
humid.,
%
clouds,
%
prec.,
mm/h
press.,
hPa
HPBL,
m
12 may, wed
wed1223:00+12ssw11350 0.0 102411
02:00+11nnw11390 0.0 102410
05:00+9nnw11430 0.0 102410
08:00+13nnw11330 0.0 102544
11:00+20ssw23220 0.0 1023800
14:00+24ssw33160 0.0 10191446
17:00+22s33190 0.0 101930
20:00+16se33250 0.0 102111
13 may, thu
thu1323:00+13ese11320 0.0 102211
02:00+12ne11340 0.0 102110
05:00+11ne11370 0.0 102110
08:00+14ne11310 0.0 102342
11:00+22e11180 0.0 1021868
14:00+25nw23120 0.0 10172215
17:00+22s11160 0.0 101711
20:00+16nne22210 0.0 102011
14 may, fri
fri1423:00+13nw22260 0.0 102011
02:00+12nnw11280 0.0 102010
05:00+10n22300 0.0 102010
08:00+14nnw23250 0.0 102269
11:00+22nw34160 0.0 10191306
14:00+25nw35110 0.0 10152579
17:00+22wnw33140 0.0 101532
20:00+15nw33240 0.0 101823
15 may, sat
sat1523:00+13nw45300 0.0 101957
02:00+12nw46350 0.0 101861
05:00+11nw45350 0.0 101857
08:00+14nnw47300 0.0 1018140
11:00+23wnw56150 0.0 10152393
14:00+25wsw56140 0.0 10122993
17:00+22w58170 0.0 1012206
20:00+16wnw47280 0.0 101684
16 may, sun
sun1623:00+15nw33300 0.0 101629
02:00+13nw45340 0.0 101645
05:00+11nw22390 0.0 101611
08:00+14n23320 0.0 101773
11:00+24wnw58170 0.0 10142120
14:00+26w810130 0.0 10113054
17:00+23w610180 0.0 1012368
20:00+16wnw44280 0.0 101636